ネオワイズ彗星

C/2021 A7 ( NEOWISE )

English version
Home page
Updated on February 20, 2021

---------------------------------------------------------------------

・ プロフィール

発見日 2021年1月9日
発見光度 20等
発見者 Near-Earth Object Wide-field Infrared Survey Explorer

・ 写真集

・ 軌道要素

Epoch 2021 July 5.0 TT = JDT 2459400.5
T 2021 July 15.49711 TT                                 Rudenko
q   1.9685486            (2000.0)            P               Q
z  +0.0013172      Peri.  356.06585     -0.89468299     -0.15007218
 +/-0.0026995      Node   154.53807     +0.43189335     -0.53111498
e   0.9974070      Incl.   78.14292     +0.11406354     +0.83390361
From 67 observations 2021 Jan. 9-20, mean residual 0".6.

・ 星図

・ 光度変化

        m1 = 10.0 + 5 logΔ + 10.0 log r

---------------------------------------------------------------------

軌道要素はM.P.E.C. 2021-B143に掲載されたものです。
星図はステラナビゲータ Ver.10 (アストロアーツ) で作成したものです。
光度グラフはComet for Windowsで作成したものです。

---------------------------------------------------------------------

Copyright(C) Seiichi Yoshida (comet@aerith.net). All rights reserved.